(°C)
10°
12°
13°
14°
(°C)
10°
11°
WSW
W
W
WNW
WNW
W
W
(km/h)
8-11
8-12
10-12
9-12
9-14
10-16
10-19
(mm)
0
0
0
0
0
0
0
(%)
0
0
0
0
10
17
12

Sonnenhöhe

/
sun-icon
UV 4
05:56
20:06
Zunehmender Mond (104°)
12:32
03:56

METAR für 50.1°N 14.27°O (LKPR)

Zeit Bedingungen Temperatur/
Taupunkt
Wind Sichtweite Wetter Wolken Druck Änderung Roh
VFR 5°C / 3°C 230º 7kt 9000m - Clear 1014 No Significant change LKPR 210400Z 23007KT 9000 NSC 05/03 Q1014 NOSIG
VFR 4°C / 3°C 220º 6kt >10km - Few Clouds 4600ft 1014 No Significant change LKPR 210330Z 22006KT 9999 FEW046 04/03 Q1014 NOSIG
VFR 4°C / 3°C 220º 7kt >10km - Few Clouds 4600ft 1014 No Significant change LKPR 210300Z 22007KT 9999 FEW046 04/03 Q1014 NOSIG
VFR 5°C / 4°C 240º 7kt >10km - Clouds and Visibility OK 1014 No Significant change LKPR 210230Z 24007KT CAVOK 05/04 Q1014 NOSIG
VFR 5°C / 4°C 230º 7kt >10km - Few Clouds 4600ft 1014 No Significant change LKPR 210200Z 23007KT 9999 FEW046 05/04 Q1014 NOSIG
VFR 4°C / 3°C 220º 7kt >10km - Clouds and Visibility OK 1014 No Significant change LKPR 210130Z 22007KT CAVOK 04/03 Q1014 NOSIG
VFR 6°C / 4°C 230º 6kt >10km - Clouds and Visibility OK 1014 No Significant change LKPR 210100Z 23006KT CAVOK 06/04 Q1014 NOSIG
VFR 5°C / 3°C 230º 6kt >10km - Clouds and Visibility OK 1014 No Significant change LKPR 210030Z 23006KT CAVOK 05/03 Q1014 NOSIG
VFR 5°C / 3°C 230º 6kt >10km - Clouds and Visibility OK 1014 No Significant change LKPR 210000Z 23006KT CAVOK 05/03 Q1014 NOSIG
VFR 6°C / 4°C 220º 7kt >10km - Clouds and Visibility OK 1014 No Significant change LKPR 202330Z 22007KT CAVOK 06/04 Q1014 NOSIG
VFR 6°C / 4°C 210º 8kt >10km - Clouds and Visibility OK 1015 No Significant change LKPR 202300Z 21008KT CAVOK 06/04 Q1015 NOSIG
VFR 6°C / 3°C 210º 7kt >10km - Clouds and Visibility OK 1015 No Significant change LKPR 202230Z 21007KT CAVOK 06/03 Q1015 NOSIG
VFR 6°C / 3°C 210º 5kt >10km - Clouds and Visibility OK 1014 No Significant change LKPR 202200Z 21005KT CAVOK 06/03 Q1014 NOSIG
VFR 6°C / 2°C 220º 3kt >10km - Clouds and Visibility OK 1014 No Significant change LKPR 202130Z 22003KT CAVOK 06/02 Q1014 NOSIG
VFR 6°C / 2°C 220º 4kt >10km - Clouds and Visibility OK 1014 No Significant change LKPR 202100Z 22004KT CAVOK 06/02 Q1014 NOSIG
VFR 8°C / 3°C 240º 3kt >10km - Clouds and Visibility OK 1014 No Significant change LKPR 202030Z 24003KT CAVOK 08/03 Q1014 NOSIG
VFR 9°C / 3°C 270º 4kt >10km - Clouds and Visibility OK 1015 No Significant change LKPR 202000Z 27004KT CAVOK 09/03 Q1015 NOSIG
VFR 10°C / 4°C 310º 3kt >10km - Clouds and Visibility OK 1015 No Significant change LKPR 201930Z 31003KT CAVOK 10/04 Q1015 NOSIG
VFR 10°C / 4°C 300º 2kt >10km - Clouds and Visibility OK 1014 No Significant change LKPR 201900Z 30002KT CAVOK 10/04 Q1014 NOSIG
VFR 10°C / 4°C 290º 2kt >10km - Clouds and Visibility OK 1014 No Significant change LKPR 201830Z 29002KT CAVOK 10/04 Q1014 NOSIG
VFR 11°C / 4°C 20º variable 270º to 040º 3kt >10km - Clouds and Visibility OK 1014 No Significant change LKPR 201800Z 02003KT 270V040 CAVOK 11/04 Q1014 NOSIG
VFR 12°C / 5°C 340º 7kt >10km - Clouds and Visibility OK 1014 No Significant change LKPR 201730Z 34007KT CAVOK 12/05 Q1014 NOSIG
VFR 13°C / 3°C 310º 7kt >10km - Clouds and Visibility OK 1014 No Significant change LKPR 201700Z 31007KT CAVOK 13/03 Q1014 NOSIG
VFR 14°C / 3°C 310º 7kt >10km - Few Clouds 5000ft 1014 No Significant change LKPR 201630Z 31007KT 9999 FEW050TCU 14/03 Q1014 NOSIG

VFR

5°C / 3°C

[Mehr]
Wind 230º 7kt
Sichtweite 9000m
Wetter -
Wolken Clear
Druck 1014
Änderung No Significant change
Roh LKPR 210400Z 23007KT 9000 NSC 05/03 Q1014 NOSIG

VFR

4°C / 3°C

[Mehr]
Wind 220º 6kt
Sichtweite >10km
Wetter -
Wolken Few Clouds 4600ft
Druck 1014
Änderung No Significant change
Roh LKPR 210330Z 22006KT 9999 FEW046 04/03 Q1014 NOSIG

VFR

4°C / 3°C

[Mehr]
Wind 220º 7kt
Sichtweite >10km
Wetter -
Wolken Few Clouds 4600ft
Druck 1014
Änderung No Significant change
Roh LKPR 210300Z 22007KT 9999 FEW046 04/03 Q1014 NOSIG

VFR

5°C / 4°C

[Mehr]
Wind 240º 7kt
Sichtweite >10km
Wetter -
Wolken Clouds and Visibility OK
Druck 1014
Änderung No Significant change
Roh LKPR 210230Z 24007KT CAVOK 05/04 Q1014 NOSIG

VFR

5°C / 4°C

[Mehr]
Wind 230º 7kt
Sichtweite >10km
Wetter -
Wolken Few Clouds 4600ft
Druck 1014
Änderung No Significant change
Roh LKPR 210200Z 23007KT 9999 FEW046 05/04 Q1014 NOSIG

VFR

4°C / 3°C

[Mehr]
Wind 220º 7kt
Sichtweite >10km
Wetter -
Wolken Clouds and Visibility OK
Druck 1014
Änderung No Significant change
Roh LKPR 210130Z 22007KT CAVOK 04/03 Q1014 NOSIG

VFR

6°C / 4°C

[Mehr]
Wind 230º 6kt
Sichtweite >10km
Wetter -
Wolken Clouds and Visibility OK
Druck 1014
Änderung No Significant change
Roh LKPR 210100Z 23006KT CAVOK 06/04 Q1014 NOSIG

VFR

5°C / 3°C

[Mehr]
Wind 230º 6kt
Sichtweite >10km
Wetter -
Wolken Clouds and Visibility OK
Druck 1014
Änderung No Significant change
Roh LKPR 210030Z 23006KT CAVOK 05/03 Q1014 NOSIG

VFR

5°C / 3°C

[Mehr]
Wind 230º 6kt
Sichtweite >10km
Wetter -
Wolken Clouds and Visibility OK
Druck 1014
Änderung No Significant change
Roh LKPR 210000Z 23006KT CAVOK 05/03 Q1014 NOSIG

VFR

6°C / 4°C

[Mehr]
Wind 220º 7kt
Sichtweite >10km
Wetter -
Wolken Clouds and Visibility OK
Druck 1014
Änderung No Significant change
Roh LKPR 202330Z 22007KT CAVOK 06/04 Q1014 NOSIG

VFR

6°C / 4°C

[Mehr]
Wind 210º 8kt
Sichtweite >10km
Wetter -
Wolken Clouds and Visibility OK
Druck 1015
Änderung No Significant change
Roh LKPR 202300Z 21008KT CAVOK 06/04 Q1015 NOSIG

VFR

6°C / 3°C

[Mehr]
Wind 210º 7kt
Sichtweite >10km
Wetter -
Wolken Clouds and Visibility OK
Druck 1015
Änderung No Significant change
Roh LKPR 202230Z 21007KT CAVOK 06/03 Q1015 NOSIG

VFR

6°C / 3°C

[Mehr]
Wind 210º 5kt
Sichtweite >10km
Wetter -
Wolken Clouds and Visibility OK
Druck 1014
Änderung No Significant change
Roh LKPR 202200Z 21005KT CAVOK 06/03 Q1014 NOSIG

VFR

6°C / 2°C

[Mehr]
Wind 220º 3kt
Sichtweite >10km
Wetter -
Wolken Clouds and Visibility OK
Druck 1014
Änderung No Significant change
Roh LKPR 202130Z 22003KT CAVOK 06/02 Q1014 NOSIG

VFR

6°C / 2°C

[Mehr]
Wind 220º 4kt
Sichtweite >10km
Wetter -
Wolken Clouds and Visibility OK
Druck 1014
Änderung No Significant change
Roh LKPR 202100Z 22004KT CAVOK 06/02 Q1014 NOSIG

VFR

8°C / 3°C

[Mehr]
Wind 240º 3kt
Sichtweite >10km
Wetter -
Wolken Clouds and Visibility OK
Druck 1014
Änderung No Significant change
Roh LKPR 202030Z 24003KT CAVOK 08/03 Q1014 NOSIG

VFR

9°C / 3°C

[Mehr]
Wind 270º 4kt
Sichtweite >10km
Wetter -
Wolken Clouds and Visibility OK
Druck 1015
Änderung No Significant change
Roh LKPR 202000Z 27004KT CAVOK 09/03 Q1015 NOSIG

VFR

10°C / 4°C

[Mehr]
Wind 310º 3kt
Sichtweite >10km
Wetter -
Wolken Clouds and Visibility OK
Druck 1015
Änderung No Significant change
Roh LKPR 201930Z 31003KT CAVOK 10/04 Q1015 NOSIG

VFR

10°C / 4°C

[Mehr]
Wind 300º 2kt
Sichtweite >10km
Wetter -
Wolken Clouds and Visibility OK
Druck 1014
Änderung No Significant change
Roh LKPR 201900Z 30002KT CAVOK 10/04 Q1014 NOSIG

VFR

10°C / 4°C

[Mehr]
Wind 290º 2kt
Sichtweite >10km
Wetter -
Wolken Clouds and Visibility OK
Druck 1014
Änderung No Significant change
Roh LKPR 201830Z 29002KT CAVOK 10/04 Q1014 NOSIG

VFR

11°C / 4°C

[Mehr]
Wind 20º variable 270º to 040º 3kt
Sichtweite >10km
Wetter -
Wolken Clouds and Visibility OK
Druck 1014
Änderung No Significant change
Roh LKPR 201800Z 02003KT 270V040 CAVOK 11/04 Q1014 NOSIG

VFR

12°C / 5°C

[Mehr]
Wind 340º 7kt
Sichtweite >10km
Wetter -
Wolken Clouds and Visibility OK
Druck 1014
Änderung No Significant change
Roh LKPR 201730Z 34007KT CAVOK 12/05 Q1014 NOSIG

VFR

13°C / 3°C

[Mehr]
Wind 310º 7kt
Sichtweite >10km
Wetter -
Wolken Clouds and Visibility OK
Druck 1014
Änderung No Significant change
Roh LKPR 201700Z 31007KT CAVOK 13/03 Q1014 NOSIG

VFR

14°C / 3°C

[Mehr]
Wind 310º 7kt
Sichtweite >10km
Wetter -
Wolken Few Clouds 5000ft
Druck 1014
Änderung No Significant change
Roh LKPR 201630Z 31007KT 9999 FEW050TCU 14/03 Q1014 NOSIG

TAF für 50.1°N 14.27°O (LKPR)

From till


From till Wind 250º 8kt. Visibility 10km or more. Nil Significant Cloud.
Temporarly from till Visibility 4000m. Mist . Nil Significant Cloud.
Temporarly from till Wind 220º 18kt. Visibility 6000m. Showers Rain . Scattered Clouds 3000ft.
With 30% probability, Temporarly from till Visibility 4000m. Thunderstorm Rain . Broken Clouds 2500ft.
Becoming from till Wind 320º 12kt. Visibility 10km or more. Broken Clouds 4500ft.
Temporarly from till Wind 310º 18kt. Visibility 6000m. Light Showers Rain . Broken Clouds 2500ft.

Roh: TAF LKPR 202300Z 2100/2206 25008KT CAVOK TEMPO 2103/2106 4000 BR NSC TEMPO 2109/2118 22018KT 6000 SHRA SCT030TCU PROB30 TEMPO 2111/2117 4000 TSRA BKN025CB BECMG 2123/2201 32012KT BKN045 TEMPO 2201/2206 31018KT 6000 -SHRA BKN025

Aktuelle Satelliten- und Regenbilder für 50.1°N 14.27°O

  • Niederschlag:
  • <1 mm
  • 1-2 mm
  • 2-5 mm
  • >5 mm

Die Standortmarkierung ist platziert auf 50.1°N 14.27°O. [Mehr]

Das Echtzeit-Satellitenbild kombiniert sichtbares Licht während des Tages mit Infrarotstrahlung während der Nacht. Nachts ist das Bild nicht dunkel, da Infrarotstrahlung Temperaturunterschiede erkennen kann. Leider sind niedrige Wolken und Nebel nur schwer von den Bodentemperaturen zu unterscheiden und können daher nachts fast unsichtbar sein. Meteosat-Satellitenbilder für Europa werden alle 5 Minuten in Echtzeit aktualisiert. Die Bilder GOES-16 / GOES-17 (Nord- und Südamerika) und Himawari (Asien) werden alle 10 Minuten aktualisiert.

Niederschläge werden von Radar und Satelliten berechnet. Nachts sind die Niederschlagsberechnungen durch die Satelliten weniger genau als tagsüber. Orangene Kreuze markieren Stellen, an denen Blitze aufgenommen wurden (über Europa).

Copyright 2021 EUMETSAT / meteoblue. Blitzdaten zur Verfügung gestellt von nowcast.

Radar- und Niederschlags-Nowcast für 50.1°N 14.27°O

Die Ortsmarkierung zeigt auf 50.1°N 14.27°O. Diese Animation zeigt das Niederschlagsradar der letzten Stunde, sowie eine 1h Vorhersage. Nieselregen und leichter Schneefall können für das Radar unsichtbar sein. Die Niederschlagsintensität ist farbcodiert von Hellblau bis Lila.